Location: Tel Aviv
(32.0670°N, 34.7670°E)
Time: 11:18:46
(UTC+03:00)

Explorer 11/Cluster Stage 4 - Pass Details

Date: 20 September 2024
Orbit: 464 x 1208 km, 28.8° (Epoch: 06 October)

Event Time Altitude Azimuth Distance (km) Brightness Sun altitude
Rises 05:05:33 0° 243° (WSW) 2,951 - -18.1°
Reaches altitude 10° 05:07:47 10° 236° (WSW) 2,146 - -17.7°
Exits shadow 05:09:49 24° 224° (SW) 1,494 7.5 -17.3°
Maximum altitude 05:12:39 46° 164° (SSE) 1,066 7.2 -16.7°
Drops below altitude 10° 05:18:41 10° 92° (E) 2,655 10.6 -15.4°
Sets 05:21:43 0° 87° (E) 3,727 11.9 -14.8°
